EW0822 Weather Reports


time (UTC)temp
C
wind
direction
speed
KPH
gust
KPH
rain 1hr
cm
rain 24hr
cm
rain mn
cm
humidity
%
barometer
mb
20260505031541 -17 0.0 0.0 0.00 0.71 0.00 1009.8
20260505030028 -17 0.0 0.0 0.00 0.71 0.00 1009.8
20260505024539 -17 0.0 0.0 0.00 0.71 0.00 1009.9
20260505023024 -17 0.0 0.0 0.00 0.71 0.00 1010.0
20260505021515 -17 0.0 0.0 0.00 0.71 0.00 1010.1
20260505020016 -17 0.0 0.0 0.00 0.71 0.00 1010.1
20260505014507 -17 0.0 0.0 0.00 0.71 0.00 1010.1
20260505013001 -17 0.0 0.0 0.00 0.71 0.00 1010.1
20260505011557 -17 0.0 0.0 0.00 0.71 0.00 1010.2
20260505010055 -17 0.0 0.0 0.00 0.71 0.00 1010.4
20260505004554 -17 0.0 0.0 0.00 0.71 0.00 1010.5
20260505003044 -17 0.0 0.0 0.00 0.71 0.00 1010.7
20260505001543 -17 0.0 0.0 0.00 0.71 0.00 1010.7
20260505000035 -17 0.0 0.0 0.00 0.71 0.00 1010.9
20260504234532 13 96 0.0 0.0 0.00 0.71 0.00 73 1010.9
20260504233030 13 101 0.0 0.0 0.00 0.71 0.00 73 1011.0
20260504231528 13 111 0.0 0.0 0.00 0.71 0.00 73 1011.1
20260504230026 13 111 0.0 0.0 0.00 0.71 0.00 73 1011.2
20260504224533 13 111 0.0 0.0 0.00 0.71 0.00 73 1011.4
20260504223023 13 117 0.0 0.0 0.00 0.71 0.00 73 1011.6
20260504221517 13 117 0.0 0.0 0.00 0.71 0.00 73 1011.7
20260504220016 13 117 0.0 0.0 0.00 0.71 0.71 72 1011.8
20260504214515 13 117 0.0 0.0 0.00 0.71 0.71 72 1011.9
20260504213020 13 117 0.0 0.0 0.00 0.71 0.71 72 1012.1
20260504211517 13 117 0.0 0.0 0.00 0.71 0.71 72 1012.2
20260504210025 13 117 0.0 0.0 0.00 0.71 0.71 72 1012.3
20260504204526 13 117 0.0 0.0 0.00 0.71 0.71 72 1012.3
20260504203015 13 117 0.0 0.0 0.00 0.71 0.71 72 1012.3
20260504201511 14 117 0.0 0.0 0.00 0.71 0.71 72 1012.3
20260504200011 14 117 0.0 0.0 0.00 0.71 0.71 72 1012.3
20260504194514 14 117 0.0 0.0 0.00 0.71 0.71 72 1012.2
20260504193011 14 117 0.0 0.0 0.03 0.71 0.71 72 1012.2
20260504191510 14 117 0.0 0.0 0.03 0.71 0.71 71 1012.0
20260504190009 15 117 0.0 0.0 0.03 0.71 0.71 71 1012.0
20260504184509 15 117 0.0 0.0 0.03 0.71 0.71 71 1012.0
20260504183010 15 117 0.0 0.0 0.00 0.69 0.69 71 1012.0
20260504181508 15 118 0.0 0.0 0.00 0.69 0.69 71 1012.1
20260504180008 15 119 0.0 0.0 0.03 0.69 0.69 71 1012.0
20260504174508 15 119 0.0 0.0 0.03 0.69 0.69 71 1012.1
20260504173007 15 119 0.0 0.0 0.03 0.69 0.69 71 1012.1
20260504171506 15 119 0.0 0.0 0.05 0.69 0.69 71 1012.3
20260504150104 16 76 0.0 0.0 0.36 0.53 0.41 70 1012.8
20260504081522 18 44 0.0 1.6 0.00 0.18 0.00 66 1012.9
20260504044544 11 53 0.0 0.0 0.00 0.18 0.00 75 1011.9
20260504043043 11 52 0.0 0.0 0.00 0.18 0.00 75 1011.9
20260504041543 11 53 0.0 3.2 0.00 0.18 0.00 75 1012.0
20260504040042 11 54 0.0 3.2 0.00 0.18 0.00 75 1011.9
20260504034544 11 59 0.0 0.0 0.00 0.18 0.00 75 1012.0
20260504033036 11 58 0.0 0.0 0.00 0.18 0.00 75 1012.1